This demonstration page uses our WeatherBlox Daily Observations layout. Learn more.

Left ArrowRight Arrow

44.31136, -96.79839

Hourly Observations for November 29, 2022

Temp ( °F °C ) Dew Point ( °F °C ) Humidity (%) Winds ( mph kmh ) Pressure ( in mb ) Visibility ( mi km ) Precip ( " mm )
12:56 am 00:56 Cloudy with Light Snow 29 -1.7 22 -5.6 75 75 N 14 22 29.82 1010 8 13 0.01 0.13
1:04 am 01:04 Cloudy with Light Snow 28 -2 19 -7 69 69 N 14 22 29.83 1010 9 14 0.01 0.13
1:56 am 01:56 Cloudy 27 -2.8 17 -8.3 66 66 NNW 12 19 29.83 1010 10 16 0.01 0.13
2:47 am 02:47 Cloudy with Light Snow 25 -4 18 -8 74 74 NNW 14 22 29.86 1011 5 8 0.01 0.13
2:56 am 02:56 Cloudy with Light Snow 25 -3.9 17 -8.3 71 71 NW 14 22 29.85 1011 3 5 0.01 0.13
3:04 am 03:04 Cloudy with Light Snow 25 -4 19 -7 80 80 NNW 10 17 29.86 1011 2 3 0.01 0.13
3:18 am 03:18 Cloudy with Light Snow 25 -4 19 -7 80 80 NNW 9 15 29.86 1011 2 3 0.01 0.13
3:34 am 03:34 Cloudy with Light Snow 23 -5 19 -7 86 86 NNW 9 15 29.86 1011 2 3 0.01 0.13
3:44 am 03:44 Cloudy with Light Snow 23 -5 19 -7 86 86 NNW 10 17 29.85 1011 3 5 0.01 0.13
3:56 am 03:56 Cloudy with Light Snow 23 -5 20 -6.7 88 88 NNW 8 13 29.84 1010 9 14 0.01 0.13
4:40 am 04:40 Cloudy with Light Snow 23 -5 18 -8 79 79 NNW 10 17 29.84 1011 6 10 0.01 0.13
4:56 am 04:56 Cloudy with Light Snow 23 -5 16 -8.9 74 74 N 12 19 29.83 1010 5 8 0.01 0.13
5:16 am 05:16 Cloudy with Light Snow 23 -5 16 -9 73 73 N 10 17 29.84 1011 9 14 0.01 0.13
5:56 am 05:56 Cloudy 23 -5 15 -9.4 71 71 NNW 13 20 29.82 1010 10 16 0.01 0.13
6:56 am 06:56 Cloudy 22 -5.6 14 -10 71 71 NNW 13 20 29.83 1010 10 16 0.00 0.00
7:56 am 07:56 Cloudy 21 -6.1 13 -10.6 70 70 NNW 14 22 29.84 1011 10 16 0.00 0.00
8:56 am 08:56 Cloudy 20 -6.7 12 -11.1 71 71 NNW 16 26 29.84 1011 10 16 0.00 0.00
9:56 am 09:56 Cloudy 19 -7.2 12 -11.1 74 74 NW 18 30 29.84 1010 10 16 0.00 0.00
10:56 am 10:56 Cloudy 19 -7.2 9 -12.8 64 64 NW 22 35 29.83 1010 10 16 0.00 0.00
11:56 am 11:56 Cloudy 19 -7.2 9 -12.8 64 64 NW 22 35 29.83 1010 10 16 0.00 0.00
12:56 pm 12:56 Mostly Sunny 20 -6.7 10 -12.2 65 65 NW 21 33 29.81 1010 10 16 0.00 0.00
1:56 pm 13:56 Sunny 22 -5.6 10 -12.2 60 60 NW 17 28 29.80 1009 10 16 0.00 0.00
2:56 pm 14:56 Sunny 22 -5.6 9 -12.8 57 57 WNW 25 41 29.82 1010 10 16 0.00 0.00
3:56 pm 15:56 Sunny 22 -5.6 9 -12.8 57 57 NW 25 41 29.84 1011 10 16 0.00 0.00
4:56 pm 16:56 Clear 21 -6.1 9 -12.8 59 59 WNW 21 33 29.88 1012 10 16 0.00 0.00
5:56 pm 17:56 Mostly Cloudy with Light Snow 20 -6.7 10 -12.2 65 65 WNW 24 39 29.91 1013 10 16 0.01 0.13
6:56 pm 18:56 Cloudy 20 -6.7 10 -12.2 65 65 WNW 25 41 29.93 1014 10 16 0.01 0.13
7:56 pm 19:56 Mostly Clear 18 -7.8 9 -12.8 67 67 NW 24 39 29.96 1014 10 16 0.01 0.13
8:56 pm 20:56 Clear 17 -8.3 8 -13.3 67 67 WNW 23 37 29.98 1015 10 16 0.00 0.00
9:56 pm 21:56 Clear 17 -8.3 7 -13.9 64 64 WNW 26 43 30.00 1016 10 16 0.00 0.00
10:56 pm 22:56 Cloudy 17 -8.3 8 -13.3 67 67 WNW 26 43 30.02 1017 10 16 0.00 0.00
11:31 pm 23:31 Cloudy 18 -8 7 -14 62 62 WNW 31 50 30.02 1017 10 16 0.00 0.00
11:56 pm 23:56 Cloudy 17 -8.3 7 -13.9 64 64 WNW 30 48 30.04 1017 10 16 0.00 0.00

Powered by AerisWeather